Weather History for Russellville, AR

Change the Weather History Date:

Monday, January 20, 2014

  Actual Average (KHOT) Record (KHOT)
Temperature  
Mean Temperature 47 °F -  
Max Temperature 68 °F 51 °F 73 °F (1951)
Min Temperature 26 °F 30 °F 1 °F (1985)
Degree Days  
Heating Degree Days 18    
Moisture  
Dew Point 27 °F    
Average Humidity 53    
Maximum Humidity 88    
Minimum Humidity 26    
Precipitation  
Precipitation 0.00 in - - ()
Sea Level Pressure  
Sea Level Pressure 29.94 in    
Wind  
Wind Speed 3 mph (NW)    
Max Wind Speed 16 mph    
Max Gust Speed 23 mph    
Visibility 10 miles    
Events      
Averages and records for this station are not official NWS values.
T = Trace of Precipitation, MM = Missing Value Source: NWS Daily Summary

Daily Weather History Graph

Daily Weather History Graph

Search for Another Location

Airport:

Trip Planner

Search our weather history database for the weather conditions in past years. The results will help you decide how hot, cold, wet, or windy it might be!

Date:

Astronomy

Jan. 20, 2014 Rise Set
Actual Time 7:18 AM CST 5:28 PM CST
Civil Twilight 6:51 AM CST 5:55 PM CST
Nautical Twilight 6:20 AM CST 6:26 PM CST
Astronomical Twilight 5:50 AM CST 6:57 PM CST
Moon 9:52 PM CST (1/20) 9:29 AM CST (1/20)
Length of Visible Light 11h 04m
Length of Day
10h 09m
Waning Gibbous, 82% of the Moon is Illuminated
Jan 20
Waning Gibbous
Jan 23
Last Quarter
Jan 30
New
Feb 6
First Quarter
Feb 14
Full

Hourly Weather History & Observations

Time (CST) Temp. Dew Point Humidity Pressure Visibility Wind Dir Wind Speed Gust Speed Precip Events Conditions
12:53 AM 28.9 °F 25.0 °F 85% 29.98 in 10.0 mi Calm Calm - N/A   Clear
1:53 AM 28.0 °F 24.1 °F 85% 29.96 in 10.0 mi Calm Calm - N/A   Clear
2:53 AM 28.0 °F 24.1 °F 85% 29.95 in 10.0 mi Calm Calm - N/A   Clear
3:53 AM 28.0 °F 24.1 °F 85% 29.94 in 10.0 mi Calm Calm - N/A   Clear
4:53 AM 27.0 °F 23.0 °F 85% 29.93 in 10.0 mi Calm Calm - N/A   Clear
5:53 AM 26.1 °F 23.0 °F 88% 29.94 in 10.0 mi Calm Calm - N/A   Clear
6:53 AM 26.1 °F 23.0 °F 88% 29.94 in 10.0 mi Calm Calm - N/A   Clear
7:53 AM 27.0 °F 23.0 °F 85% 29.94 in 10.0 mi Calm Calm - N/A   Clear
8:53 AM 34.0 °F 28.0 °F 79% 29.95 in 10.0 mi Calm Calm - N/A   Clear
9:53 AM 46.0 °F 30.9 °F 56% 29.95 in 10.0 mi Calm Calm - N/A   Clear
10:53 AM 54.0 °F 30.0 °F 40% 29.94 in 10.0 mi South 4.6 mph - N/A   Clear
11:53 AM 60.1 °F 30.0 °F 32% 29.89 in 10.0 mi SSW 6.9 mph - N/A   Clear
12:53 PM 64.0 °F 32.0 °F 30% 29.84 in 10.0 mi Calm Calm - N/A   Clear
1:53 PM 66.0 °F 32.0 °F 28% 29.82 in 10.0 mi NNW 4.6 mph - N/A   Clear
2:53 PM 68.0 °F 32.0 °F 26% 29.81 in 10.0 mi NW 6.9 mph - N/A   Clear
3:53 PM 66.9 °F 32.0 °F 27% 29.83 in 10.0 mi NW 9.2 mph - N/A   Clear
4:53 PM 64.9 °F 33.1 °F 31% 29.85 in 10.0 mi West 12.7 mph - N/A   Clear
5:53 PM 57.9 °F 33.1 °F 39% 29.89 in 10.0 mi NW 4.6 mph - N/A   Clear
6:53 PM 59.0 °F 33.1 °F 38% 29.93 in 10.0 mi NW 5.8 mph - N/A   Clear
7:53 PM 57.0 °F 30.0 °F 36% 29.98 in 10.0 mi NNW 6.9 mph - N/A   Clear
8:53 PM 55.9 °F 24.1 °F 29% 30.01 in 10.0 mi NW 9.2 mph - N/A   Clear
9:53 PM 54.0 °F 24.1 °F 31% 30.05 in 10.0 mi NW 16.1 mph 23.0 mph N/A   Clear
10:53 PM 51.1 °F 21.0 °F 31% 30.08 in 10.0 mi NW 9.2 mph 19.6 mph N/A   Clear
11:53 PM 48.9 °F 19.9 °F 32% 30.08 in 10.0 mi NW 10.4 mph - N/A   Clear